Location: Fatum
(53.1461°N, 5.5707°E)
Time: 05:30:07
(UTC+00:00)

Daily predictions for brighter satellites

Satellite Brightness Start Highest point End
(mag) Time Altitude Azimuth Time Altitude Azimuth Time Altitude Azimuth
ATLAS 2AS CENTAUR R/B 4.2 00:29:09 35° NNE 00:29:09 35° NNE 00:34:16 10° ENE
Cosmos 2333 Rocket 4.4 01:30:54 21° NNE 01:30:54 21° NNE 01:32:50 10° NNE
Cosmos 2219 Rocket 4.4 01:33:55 21° NNE 01:33:55 21° NNE 01:35:51 10° NNE
Cosmos 2237 Rocket 4.3 01:38:07 23° NNE 01:38:07 23° NNE 01:40:06 10° NNE
Cosmos 2360 Rocket 4.4 01:51:03 19° N 01:51:03 19° N 01:53:20 10° NNE
CZ-4C R/B 3.9 01:52:49 33° NE 01:52:49 33° NE 01:56:27 10° NE
ATLAS 2AS CENTAUR R/B 3.9 02:16:34 30° NNW 02:19:51 44° NNE 02:26:54 10° E
SL-16 R/B 3.4 02:26:04 39° NE 02:26:04 39° NE 02:29:31 10° NNE
COSMOS 2428 4.5 02:28:35 24° N 02:28:35 24° N 02:31:43 10° NNE
IDEFIX/ARIANE 42P 4.2 02:22:25 10° NNE 02:26:30 29° E 02:26:30 29° E
ATLAS CENTAUR R/B 4.0 02:35:27 19° NE 02:35:27 19° NE 02:36:42 10° NE
ADEOS II 3.6 02:32:42 10° NNE 02:35:25 32° NNE 02:35:25 32° NNE
CZ-2D R/B 4.0 02:50:01 10° N 02:51:53 20° NNW 02:51:53 20° NNW
NOSS 2-2 (C) 4.5 03:04:52 74° ESE 03:04:52 74° ESE 03:11:38 10° SE
USA 215 3.8 02:58:21 10° ENE 03:04:36 45° SE 03:05:21 44° SSE
Resurs 1-4 Rocket 4.1 03:03:43 10° N 03:05:41 19° NNW 03:05:41 19° NNW
Cosmos 1605 Rocket 4.3 03:02:07 10° NNW 03:06:54 55° NNW 03:06:54 55° NNW
Cosmos 2333 Rocket 4.1 03:12:53 19° NNW 03:12:53 19° NNW 03:16:52 10° NNE
Cosmos 2221 3.7 03:15:45 41° ENE 03:15:45 41° ENE 03:19:10 10° NNE
Cosmos 2219 Rocket 4.1 03:15:37 18° NNW 03:15:38 18° NNW 03:19:33 10° NNE
CZ-2C R/B 4.1 03:12:24 10° NNE 03:16:58 31° E 03:20:21 16° SSE
Cosmos 2237 Rocket 3.6 03:19:56 27° NNW 03:19:56 27° NNW 03:23:59 10° NNE
Cosmos 1140 Rocket 4.4 03:18:48 39° SE 03:19:50 44° ESE 03:24:48 10° NE
Cosmos 614 Rocket 4.1 03:24:28 70° ESE 03:24:28 70° ESE 03:29:38 10° NNE
PSLV R/B 4.3 03:23:03 10° NNE 03:26:36 49° ENE 03:26:36 49° ENE
Cosmos 1842 Rocket 4.2 03:31:28 53° NNE 03:31:28 53° NNE 03:34:58 10° NNE
Cosmos 2251 Rocket 4.3 03:31:46 39° NNW 03:31:46 39° NNW 03:35:50 10° NNE
Cosmos 2084 4.2 03:31:30 52° ESE 03:31:30 52° ESE 03:35:21 10° NE
Cosmos 1153 Rocket 4.3 03:27:57 10° NNW 03:34:07 81° W 03:36:14 44° S
NOSS 3-4 (A) 4.2 03:32:40 22° NW 03:37:13 61° NNE 03:44:34 10° ESE
NOSS 3-4 (C) 4.2 03:32:45 22° NW 03:37:19 60° NNE 03:44:39 10° ESE
Cosmos 2173 Rocket 4.2 03:31:15 10° N 03:37:32 70° ENE 03:43:40 10° SSE
Cosmos 1238 Rocket 4.2 03:33:18 10° N 03:38:53 52° ENE 03:43:29 10° SSE
CZ-4C R/B 3.4 03:37:59 31° NW 03:39:36 35° N 03:45:56 10° NE
USA 267 3.2 03:34:11 10° SE 03:40:40 62° SW 03:41:35 56° WSW
Cosmos 407 Rocket 3.5 03:40:17 71° S 03:40:50 81° ESE 03:46:07 10° NNE
CBERS 1 LM4 rocket 4.3 03:37:54 10° NNE 03:42:55 84° ESE 03:43:20 74° S
Cosmos 1339 Rocket 4.3 03:42:34 63° WSW 03:43:15 68° WNW 03:49:27 10° N
Celestis-02/Orion 38 4.4 03:40:55 10° NNE 03:46:02 86° ESE 03:46:42 68° SSW
Cosmos 1727 Rocket 3.9 03:45:38 37° S 03:48:16 89° WNW 03:54:29 10° N
ARIANE 5 R/B 3.7 03:44:35 10° N 03:47:36 27° NNW 03:47:36 27° NNW
Cosmos 2084 Rocket 4.4 03:48:51 35° NNW 03:50:07 46° NNE 03:54:26 10° ESE
COSMOS 2455 3.8 03:44:45 10° NW 03:50:33 46° NE 03:56:21 10° ESE
Meteor 2-10 Rocket 4.4 03:52:02 33° NW 03:52:02 33° NW 03:55:31 10° N
COSMO-SKYMED 1 4.1 03:51:26 10° SE 03:55:24 36° ENE 03:59:24 10° N
Cosmos 1459 Rocket 3.9 03:50:13 10° N 03:56:29 89° E 04:02:48 10° S
STARLINK-1098 3.8 03:58:22 64° SE 03:58:22 64° SE 04:02:19 10° E
STARLINK-1123 3.6 04:03:07 68° SSE 04:03:08 68° SSE 04:07:16 10° E
Cosmos 1862 3.5 04:01:34 10° N 04:05:33 72° ENE 04:09:31 10° SSE
Cosmos 2100 Rocket 3.8 03:59:58 10° NNW 04:06:11 75° W 04:12:18 10° S
Cosmos 468 Rocket 4.1 04:01:24 10° NNW 04:06:45 76° ENE 04:12:01 10° SSE
IDEFIX/ARIANE 42P 2.7 04:01:47 10° N 04:06:52 51° WNW 04:07:20 50° W
STARLINK-1097 3.6 04:07:56 68° S 04:08:08 70° SSE 04:12:16 10° E
SL-16 R/B 3.3 04:07:57 28° NW 04:08:35 29° NW 04:13:29 10° NNE
Sich 1 3.0 04:05:00 10° N 04:09:19 84° ENE 04:13:40 10° SSE
Cosmos 1346 Rocket 4.4 04:06:12 10° N 04:09:48 34° ENE 04:13:23 10° SE
Meteor 1-31 Rocket 3.7 04:06:22 10° NNE 04:10:06 46° E 04:13:41 11° S
ATLAS 2AS CENTAUR R/B 2.9 04:03:59 10° NW 04:11:48 84° NE 04:18:59 10° SE
ATLAS CENTAUR R/B 3.1 04:11:38 21° NNW 04:12:09 22° NNW 04:15:27 10° NNE
Cosmos 1238 4.4 04:12:19 83° N 04:12:19 83° N 04:16:08 10° N
Cosmos 1190 Rocket 3.9 04:11:34 46° SW 04:13:05 70° WNW 04:18:26 10° NNE
STARLINK-1099 3.5 04:12:42 66° SSW 04:13:06 72° SSE 04:17:14 10° E
Cosmos 1340 3.7 04:11:51 10° N 04:15:31 46° ENE 04:19:09 10° SSE
ADEOS II 3.7 04:13:27 10° N 04:16:22 18° NW 04:16:22 18° NW
MSX 3.8 04:12:21 10° N 04:18:01 63° WNW 04:20:44 31° SW
STARLINK-1104 3.5 04:17:30 61° SW 04:18:05 75° SSE 04:22:14 10° E
Meteor 1-27 4.3 04:17:52 39° SW 04:19:39 55° WNW 04:25:11 10° N
Cosmos 489 Rocket 4.4 04:14:47 10° NNW 04:21:06 86° WSW 04:27:19 10° SSE
Cosmos 192 4.2 04:16:30 10° NNW 04:21:26 84° WSW 04:26:22 10° SSE
Cosmos 1943 3.2 04:19:42 39° WSW 04:21:40 62° NW 04:27:18 10° NNE
STARLINK-1144 3.6 04:22:17 56° SW 04:23:04 77° SSE 04:27:13 10° E
Cosmos 1725 Rocket 4.0 04:19:00 10° N 04:25:20 84° E 04:31:39 10° S
Cosmos 1603 4.0 04:23:44 37° W 04:25:30 50° NW 04:31:01 10° NNE
Cosmos 1805 Rocket 3.6 04:22:25 10° NNW 04:26:38 51° W 04:30:51 10° S
Cosmos 841 Rocket 4.1 04:21:47 10° NNW 04:26:58 57° ENE 04:32:08 10° SE
Cosmos 220 Rocket 3.8 04:23:36 10° NNW 04:27:51 89° WSW 04:32:04 10° SSE
STARLINK-1103 3.6 04:27:03 51° WSW 04:28:01 79° SSE 04:32:10 10° E
Cosmos 1763 Rocket 3.5 04:22:50 10° NNW 04:28:12 90° NE 04:33:31 10° SSE
Cosmos 2208 Rocket 4.4 04:25:01 10° NNW 04:30:16 64° ENE 04:35:25 10° SE
STARLINK-1128 3.6 04:29:18 48° WSW 04:30:24 80° SSE 04:34:35 10° E
PAYLOAD A 3.9 04:25:28 10° N 04:30:25 64° WNW 04:33:43 22° SW
Cosmos 676 Rocket 3.9 04:29:10 24° SW 04:32:25 76° WNW 04:37:48 10° NNE
STARLINK-1101 3.6 04:31:51 46° WSW 04:33:01 80° SSE 04:37:10 10° E
Cosmos 2123 Rocket 4.2 04:27:23 10° S 04:33:39 73° E 04:39:54 10° NNE
STARLINK-1113 3.6 04:34:04 43° WSW 04:35:21 82° S 04:39:33 10° E
ADEOS 3.7 04:32:20 10° N 04:37:27 54° WNW 04:40:38 22° SW
STARLINK-1102 3.5 04:36:37 41° WSW 04:37:58 82° S 04:42:08 10° E
Cosmos 1864 Rocket 4.4 04:34:02 10° NNW 04:40:12 78° W 04:46:23 10° S
STARLINK-1119 3.6 04:38:52 39° WSW 04:40:20 83° S 04:44:33 10° E
USA 116 4.3 04:38:50 10° SE 04:41:50 45° ENE 04:45:01 10° N
STARLINK-1111 3.5 04:41:25 37° WSW 04:42:58 84° S 04:47:08 10° E
CZ-4B R/B 4.0 04:38:42 10° NNE 04:43:09 84° WNW 04:47:38 10° SSW
SKYMED 2 3.5 04:38:59 10° SSE 04:43:20 87° WSW 04:47:43 10° NNW
SL-08 R/B 4.3 04:37:36 10° NNW 04:43:43 72° W 04:49:45 10° S
STARLINK-1066 2.6 04:43:55 63° W 04:44:19 90° NNE 04:47:16 10° E
STARLINK-1081 2.6 04:44:07 62° W 04:44:33 90° E 04:47:29 10° E
STARLINK-1070 2.6 04:44:19 61° W 04:44:46 90° NW 04:47:44 10° E
STARLINK-1069 2.6 04:44:33 61° W 04:44:59 90° W 04:47:56 10° E
STARLINK-1085 2.6 04:44:46 61° W 04:45:13 90° E 04:48:10 10° E
STARLINK-1114 3.6 04:43:40 35° WSW 04:45:21 85° SSE 04:49:32 10° E
STARLINK-1086 2.6 04:44:59 61° W 04:45:26 90° E 04:48:23 10° E
Cosmos 1570 Rocket 4.0 04:40:09 10° NNW 04:45:31 89° WSW 04:50:54 10° SSE
STARLINK-1095 2.6 04:45:12 60° W 04:45:40 90° W 04:48:37 10° E
Cosmos 2061 Rocket 4.0 04:39:42 10° NNW 04:45:51 60° W 04:51:55 10° S
STARLINK-1077 2.6 04:45:26 59° W 04:45:54 89° E 04:48:51 10° E
STARLINK-1075 2.6 04:45:38 59° W 04:46:07 90° W 04:49:04 10° E
STARLINK-1093 2.6 04:45:50 58° W 04:46:20 90° E 04:49:16 10° E
STARLINK-1074 2.6 04:46:04 58° W 04:46:34 90° SSE 04:49:31 10° E
STARLINK-1087 2.6 04:46:17 57° W 04:46:48 89° E 04:49:44 10° E
STARLINK-1088 2.6 04:46:30 57° W 04:47:01 89° E 04:49:57 10° E
STARLINK-1115 2.6 04:46:43 57° W 04:47:14 90° W 04:50:11 10° E
STARLINK-1076 2.6 04:46:55 56° W 04:47:27 90° SSE 04:50:24 10° E
STARLINK-1092 2.6 04:47:09 56° W 04:47:41 90° SSW 04:50:38 10° E
STARLINK-1080 2.6 04:47:22 55° W 04:47:55 90° WSW 04:50:52 10° E
STARLINK-1073 3.6 04:46:11 34° WSW 04:47:56 85° S 04:52:06 10° E
USA 215 3.2 04:41:26 10° ENE 04:48:01 86° NNW 04:52:42 21° WSW
STARLINK-1090 2.6 04:47:35 55° W 04:48:09 90° SSE 04:51:05 10° E
STARLINK-1089 2.6 04:47:48 54° W 04:48:22 89° WSW 04:51:19 10° E
STARLINK-1107 2.6 04:48:00 54° W 04:48:34 90° SSE 04:51:31 10° E
STARLINK-1109 2.6 04:48:14 54° W 04:48:48 90° WSW 04:51:45 10° E
STARLINK-1091 2.6 04:48:27 53° W 04:49:03 90° S 04:51:59 10° E
STARLINK-1072 2.6 04:48:40 53° W 04:49:16 90° ESE 04:52:13 10° E
STARLINK-1096 2.6 04:48:52 53° W 04:49:28 90° SSE 04:52:25 10° E
STARLINK-1079 2.6 04:49:05 52° W 04:49:43 90° SSW 04:52:39 10° E
STARLINK-1116 2.6 04:49:17 52° W 04:49:55 90° SSE 04:52:52 10° E
STARLINK-1130 (DARKSAT) 3.6 04:48:27 32° W 04:50:19 86° S 04:54:31 10° E
STARLINK-1094 2.6 04:49:44 51° W 04:50:23 90° SSE 04:53:20 10° E
STARLINK-1117 2.6 04:49:58 50° W 04:50:37 90° S 04:53:34 10° E
Spot 2 4.1 04:46:43 10° N 04:50:48 53° WNW 04:54:12 15° SW
STARLINK-1078 2.6 04:50:11 50° W 04:50:50 90° SW 04:53:47 10° E
STARLINK-1108 2.6 04:50:23 50° W 04:51:03 90° S 04:54:01 10° E
STARLINK-1071 2.6 04:50:36 50° W 04:51:16 90° SW 04:54:12 10° E
STARLINK-1110 2.6 04:50:49 49° W 04:51:31 90° S 04:54:27 10° E
STARLINK-1122 2.6 04:51:16 48° W 04:51:58 90° S 04:54:55 10° E
Cosmos 1802 Rocket 4.2 04:45:54 10° NNW 04:52:04 49° W 04:58:09 10° SSW
STARLINK-1126 2.6 04:51:27 48° W 04:52:10 89° SSE 04:55:07 10° E
STARLINK-1082 2.6 04:51:42 47° W 04:52:25 90° S 04:55:22 10° E
STARLINK-1100 2.6 04:51:55 47° W 04:52:38 90° S 04:55:36 10° E
Cosmos 2221 3.6 04:52:37 25° WNW 04:52:49 25° WNW 04:56:25 10° N
STARLINK-1083 2.6 04:52:07 47° W 04:52:51 89° SW 04:55:48 10° E
STARLINK-1121 3.6 04:50:58 31° W 04:52:55 86° S 04:57:06 10° E
STARLINK-1125 2.6 04:52:20 46° W 04:53:05 89° S 04:56:02 10° E
Cosmos 1869 4.1 04:54:05 28° W 04:54:30 29° WNW 04:57:59 10° N
STARLINK-1084 3.6 04:53:14 29° W 04:55:18 87° S 04:59:30 10° E
CZ-2C R/B 2.7 04:50:27 10° N 04:55:24 47° WNW 04:59:44 12° SW
Cosmos 540 Rocket 3.6 04:50:48 10° NNW 04:56:01 80° ENE 05:01:13 10° SSE
Cosmos 2016 Rocket 4.1 04:50:06 10° NNW 04:56:10 53° W 05:02:17 10° SSW
Cosmos 1328 Rocket 3.9 04:52:03 10° S 04:56:27 70° E 05:00:52 10° NNE
STARLINK-1124 2.7 04:55:45 38° W 04:56:47 87° S 04:59:50 10° E
STARLINK-1106 3.6 04:55:45 28° W 04:57:53 87° S 05:02:04 10° E
Cosmos 2322 Rocket 4.5 04:54:40 10° NNW 04:58:33 18° NNE 05:02:25 10° ENE
Cosmos 2333 Rocket 4.4 04:56:57 10° NNW 04:59:35 13° N 05:02:12 10° NNE
ALOS 2.5 04:55:52 10° NNE 05:00:34 74° ESE 05:05:14 10° S
Cosmos 1933 4.2 04:57:15 10° S 05:01:14 54° E 05:05:14 10° NNE
Cosmos 1315 Rocket 3.4 04:57:29 10° S 05:01:20 59° E 05:05:12 10° NNE
ISS -2.4 04:59:19 17° SSW 05:01:25 34° SSE 05:04:32 10° E
Cosmos 1400 Rocket 2.9 04:57:40 10° SSW 05:01:43 58° WNW 05:05:50 10° N
Cosmos 1140 Rocket 4.1 04:58:50 21° WSW 05:01:44 38° NW 05:06:38 10° NNE
Cosmos 2219 Rocket 4.4 04:59:34 10° NNW 05:02:03 13° N 05:04:31 10° NNE
SJ-12 4.1 04:58:38 10° NNE 05:02:47 76° E 05:06:57 10° S
STARLINK-1112 3.6 05:00:32 25° W 05:02:53 88° S 05:07:02 10° E
Meteor PRIRODA 3.5 04:59:39 10° NNE 05:03:22 80° WNW 05:07:01 10° SSW
Cosmos 2237 Rocket 4.3 05:02:33 10° NW 05:05:18 14° N 05:08:04 10° NNE
Meteor 1-20 Rocket 4.5 05:00:11 10° N 05:05:57 76° ENE 05:11:46 10° SSE
H-2A R/B 2.7 05:04:41 10° N 05:09:04 56° WNW 05:13:29 10° SSW
Cosmos 2233 Rocket 4.0 05:03:29 10° NNW 05:09:47 74° W 05:16:05 10° S
Cosmos 2084 4.2 05:08:03 20° W 05:10:40 40° NNW 05:14:55 10° NE
Cosmos 1484 Rocket 2.9 05:09:30 10° N 05:13:26 58° WNW 05:17:22 10° SSW
Cosmos 1633 Rocket 3.5 05:10:55 10° NNW 05:15:01 39° W 05:19:06 10° SSW
Cosmos 1656 3.7 05:10:45 10° NNW 05:16:30 88° SW 05:22:13 10° SSE
FENGYUN 3A 3.7 05:11:57 10° NNE 05:17:26 88° WNW 05:22:53 10° SSW
Cosmos 1238 Rocket 4.3 05:13:27 10° NNW 05:18:05 28° W 05:22:05 10° SW
Cosmos 1697 Rocket 3.1 05:14:45 10° NNW 05:20:24 66° NE 05:26:02 10° SE
Cosmos 2360 Rocket 4.5 05:18:07 10° NNW 05:21:38 17° NNE 05:25:10 10° ENE
ADEOS Rocket 3.4 05:15:51 10° SSE 05:22:38 89° WSW 05:30:11 10° NNW
Okean O Rocket 2.5 05:19:05 10° NNE 05:23:23 54° E 05:27:38 10° S
USA 267 4.4 05:19:42 10° S 05:24:37 22° SW 05:28:58 12° W
Cosmos 1666 Rocket 4.4 05:21:10 10° NNW 05:24:55 27° W 05:28:37 10° SW
Cosmos 1515 Rocket 3.7 05:20:49 10° S 05:25:14 83° E 05:29:40 10° NNE
Cosmos 1933 Rocket 3.5 05:21:14 10° NNW 05:25:34 69° W 05:29:52 10° S
BREEZE-M DEB (TANK) 3.3 05:20:57 13° W 05:26:07 52° SSW 05:29:50 10° SE
Cosmos 1606 2.6 05:23:24 10° SSW 05:27:11 81° WNW 05:30:59 10° N
NOSS 3-4 (A) 4.0 05:21:34 10° NW 05:28:13 52° SW 05:35:32 10° SSE
NOSS 3-4 (C) 4.0 05:21:40 10° NW 05:28:20 52° SW 05:35:38 10° SSE
Cosmos 2084 Rocket 3.9 05:25:25 10° WNW 05:29:41 45° SW 05:33:57 10° SSE
CZ-4C R/B 3.7 05:23:47 10° NW 05:29:44 39° NNE 05:36:43 10° E
Cosmos 1980 Rocket 3.2 05:24:38 10° NNW 05:30:05 48° NE 05:35:29 10° SE
COSMO-SKYMED 1 3.3 05:27:42 10° SSW 05:31:37 32° W 05:35:33 10° NNW
CZ-4B R/B 3.4 05:29:53 10° N 05:33:06 30° WNW 05:36:17 10° SW
BREEZE-M DEB (TANK) 4.1 05:30:22 10° SW 05:33:53 26° SSE 05:36:00 10° ESE
COSMOS 2455 3.0 05:30:49 10° NW 05:36:39 53° WSW 05:42:28 10° SSE
Cosmos 1850 Rocket 4.1 05:32:18 10° SW 05:37:30 57° WNW 05:42:42 10° NNE
STARLINK-1098 3.6 05:34:00 13° W 05:37:44 90° SSW 05:41:54 10° E
Meteor 1-14 Rocket 4.4 05:33:46 10° NNW 05:39:33 89° ENE 05:45:26 10° SSE
NOSS 3-3 (A) 4.2 05:34:08 10° WSW 05:40:14 65° NW 05:47:13 10° NE
NOSS 3-3 (C) 4.2 05:34:13 10° WSW 05:40:20 66° NW 05:47:20 10° NE
Cosmos 1461 3.7 05:36:15 10° NW 05:40:32 54° NE 05:44:59 10° ESE
STARLINK-1118 2.5 05:39:11 13° W 05:41:25 66° SSW 05:44:02 10° ESE
STARLINK-1123 3.6 05:38:46 11° W 05:42:42 89° S 05:46:52 10° E
Meteor 1-31 Rocket 4.0 05:41:19 10° N 05:44:17 22° WNW 05:47:15 10° WSW
PAYLOAD B 4.3 05:38:49 10° NNE 05:44:25 84° WNW 05:49:58 10° SSW
IDEFIX/ARIANE 42P 4.4 05:43:19 10° NNW 05:45:21 12° NW 05:47:23 10° WNW
Cosmos 1346 Rocket 3.7 05:42:48 10° NW 05:46:04 26° W 05:49:19 10° SSW
Cosmos 2228 Rocket 3.2 05:41:44 10° S 05:46:11 83° E 05:50:41 10° NNE
STARLINK-1097 3.6 05:43:34 10° W 05:47:42 89° S 05:51:52 10° E
Cosmos 1340 4.1 05:48:11 10° NW 05:50:49 18° W 05:53:27 10° SW
ERBS 2.9 05:48:16 10° SW 05:51:35 56° SSE 05:54:53 10° ENE
ATLAS CENTAUR R/B 3.5 05:49:30 10° NW 05:52:27 18° N 05:55:14 10° NE
STARLINK-1099 3.6 05:48:31 10° W 05:52:41 88° S 05:56:51 10° E
PSLV R/B 4.4 05:49:42 10° N 05:53:11 35° WNW 05:56:43 10° SW
METEOR-M 4.3 05:48:24 10° N 05:53:34 51° WNW 05:58:42 10° SW
SL-16 R/B 4.2 05:51:50 10° NW 05:54:43 14° NNW 05:57:36 10° NNE
Cosmos 1174 4.4 05:52:23 10° NNW 05:55:35 48° NE 05:59:21 10° ESE
Meteor 1-25 Rocket 4.4 05:51:17 10° NNW 05:56:36 48° W 06:01:55 10° SSW
H-2A R/B 3.0 05:53:34 10° NNE 05:57:20 72° ESE 06:01:01 10° S
STARLINK-1104 3.7 05:53:30 10° W 05:57:40 87° S 06:01:50 10° E
Cosmos 2344 4.5 05:50:30 10° NW 05:59:46 68° SW 06:12:38 10° SSE
ATLAS 2AS CENTAUR R/B 3.6 05:55:36 10° NW 06:02:06 32° WSW 06:08:08 10° S
